W7YP Weather Reports


time (UTC)temp
C
wind
direction
speed
KPH
gust
KPH
rain 1hr
cm
rain 24hr
cm
rain mn
cm
humidity
%
barometer
mb
20260831115407 8 292 0.0 0.0 0.00 1.09 0.00 97 1018.9
20260831115345 8 292 0.0 0.0 0.00 1.09 0.00 97 1018.9
20260831114354 8 292 0.0 0.0 0.00 1.09 0.00 97 1019.1
20260831113850 8 292 0.0 0.0 0.00 1.09 0.00 97 1018.9
20260831113339 8 292 0.0 0.0 0.00 1.09 0.00 97 1018.9
20260831112843 8 292 0.0 0.0 0.00 1.09 0.00 97 1018.8
20260831112551 8 292 0.0 0.0 0.00 1.09 0.00 97 1018.8
20260831111830 8 292 0.0 0.0 0.00 1.09 0.00 97 1018.8
20260831111551 8 292 0.0 0.0 0.00 1.09 0.00 97 1018.8
20260831110825 8 292 0.0 0.0 0.00 1.09 0.00 97 1018.7
20260831110325 8 292 0.0 0.0 0.00 1.09 0.00 97 1018.8
20260831105826 8 292 0.0 0.0 0.00 1.09 0.00 97 1018.8
20260831105329 8 292 0.0 0.0 0.00 1.09 0.00 97 1018.7
20260831104826 8 292 0.0 0.0 0.00 1.09 0.00 97 1018.6
20260831104322 8 292 0.0 0.0 0.00 1.09 0.00 97 1018.7
20260831103819 8 292 0.0 0.0 0.00 1.09 0.00 97 1018.8
20260831103316 8 292 0.0 0.0 0.00 1.09 0.00 97 1018.8
20260831103013 8 292 0.0 0.0 0.00 1.09 0.00 97 1018.8
20260831102251 8 292 0.0 0.0 0.00 1.09 0.00 97 1018.7
20260831101746 8 292 0.0 0.0 0.00 1.09 0.00 97 1018.6
20260831101247 8 292 0.0 0.0 0.00 1.09 0.00 97 1018.6
20260831100742 8 292 0.0 0.0 0.00 1.09 0.00 97 1018.6
20260831100233 8 292 0.0 0.0 0.00 1.09 0.00 97 1018.5
20260831095727 8 292 0.0 0.0 0.00 1.09 0.00 97 1018.5
20260831095227 8 292 0.0 0.0 0.00 1.09 0.00 97 1018.6
20260831094948 8 292 0.0 0.0 0.00 1.09 0.00 97 1018.5
20260831094448 8 292 0.0 0.0 0.00 1.09 0.00 97 1018.6
20260831093723 8 292 0.0 0.0 0.00 1.09 0.00 97 1018.6
20260831093223 8 292 0.0 0.0 0.00 1.09 0.00 97 1018.6
20260831092726 8 292 0.0 0.0 0.00 1.09 0.00 97 1018.6
20260831092706 8 292 0.0 0.0 0.00 1.09 0.00 97 1018.6
20260831091708 8 292 0.0 0.0 0.00 1.09 0.00 97 1018.6
20260831091208 8 292 0.0 0.0 0.00 1.09 0.00 97 1018.5
20260831090709 8 292 0.0 0.0 0.00 1.09 0.00 97 1018.5
20260831090436 8 292 0.0 0.0 0.00 1.09 0.00 97 1018.5
20260831085710 8 292 0.0 0.0 0.00 1.09 0.00 97 1018.5
20260831085210 8 292 0.0 0.0 0.00 1.09 0.00 97 1018.5
20260831084709 8 292 0.0 0.0 0.00 1.09 0.00 97 1018.4
20260831084159 8 292 0.0 0.0 0.00 1.09 0.00 97 1018.5
20260831083650 8 292 0.0 0.0 0.00 1.09 0.00 97 1018.4
20260831083153 8 292 0.0 0.0 0.00 1.09 0.00 97 1018.3
20260831082650 8 292 0.0 0.0 0.00 1.09 0.00 97 1018.3
20260831082145 8 292 0.0 0.0 0.00 1.09 0.00 97 1018.3
20260831081645 8 292 0.0 0.0 0.00 1.09 0.00 97 1018.3
20260831081141 8 292 0.0 0.0 0.00 1.09 0.00 97 1018.2
20260831080644 8 292 0.0 0.0 0.00 1.09 0.00 97 1018.1
20260831080353 8 292 0.0 0.0 0.00 1.09 0.00 97 1018.2
20260831075856 8 292 0.0 0.0 0.00 1.09 0.00 97 1018.1
20260831075131 8 292 0.0 0.0 0.00 1.09 0.00 97 1018.1
20260831074631 8 292 0.0 0.0 0.00 1.09 0.00 97 1018.1
20260831074126 8 292 0.0 0.0 0.00 1.09 0.00 97 1018.2
20260831073846 8 292 0.0 0.0 0.00 1.09 0.00 97 1018.3
20260831073117 8 292 0.0 0.0 0.00 1.09 0.00 97 1018.2
20260831072617 8 292 0.0 3.2 0.00 1.09 0.00 97 1018.1
20260831072120 8 292 0.0 3.2 0.00 1.09 0.00 97 1017.9
20260831071844 8 292 0.0 0.0 0.00 1.09 0.00 97 1017.8
20260831071108 8 292 0.0 0.0 0.00 1.09 0.00 97 1017.9
20260831070558 8 292 0.0 0.0 0.00 1.09 0.00 97 1017.9
20260831070056 8 292 0.0 0.0 0.00 1.09 0.00 97 1017.9
20260831065545 8 292 0.0 0.0 0.00 1.09 0.00 97 1018.2
20260831065246 8 292 0.0 0.0 0.00 1.09 0.00 97 1018.2
20260831064528 8 292 0.0 0.0 0.00 1.09 0.00 97 1018.2
20260831064028 8 292 0.0 0.0 0.00 1.09 0.00 97 1018.2
20260831063750 8 292 0.0 0.0 0.00 1.09 0.00 97 1018.2
20260831063019 8 292 0.0 0.0 0.00 1.09 0.00 97 1018.2
20260831062518 8 292 0.0 0.0 0.00 1.09 0.00 97 1018.3
20260831062014 8 292 0.0 0.0 0.00 1.09 0.00 97 1018.3
20260831061509 8 292 0.0 0.0 0.00 1.09 0.00 97 1018.3
20260831061003 8 292 0.0 0.0 0.00 1.09 0.00 97 1018.3
20260831060459 8 292 0.0 0.0 0.00 1.09 0.00 97 1018.2
20260831060002 8 292 0.0 0.0 0.00 1.09 1.09 97 1018.3
20260831055454 8 292 0.0 0.0 0.00 1.09 1.09 97 1018.5
20260831054954 8 292 0.0 0.0 0.00 1.09 1.09 97 1018.5
20260831054713 8 292 0.0 1.6 0.00 1.09 1.09 97 1018.5
20260831053949 8 292 0.0 1.6 0.00 1.09 1.09 97 1018.6
20260831053447 8 292 0.0 4.8 0.00 1.09 1.09 97 1018.6
20260831052945 9 292 0.0 4.8 0.00 1.09 1.09 97 1018.6
20260831052445 9 292 0.0 0.0 0.00 1.09 1.09 97 1018.7
20260831052207 8 292 0.0 0.0 0.00 1.09 1.09 97 1018.6
20260831051927 8 292 0.0 0.0 0.00 1.09 1.09 97 1018.6
20260831050933 8 292 0.0 0.0 0.00 1.09 1.09 97 1018.7
20260831050431 8 292 0.0 0.0 0.00 1.09 1.09 97 1018.7
20260831045926 8 292 0.0 0.0 0.00 1.09 1.09 97 1018.8
20260831045421 8 292 0.0 0.0 0.00 1.09 1.09 97 1018.9
20260831044916 8 292 0.0 0.0 0.00 1.09 1.09 97 1018.9
20260831044416 8 292 0.0 0.0 0.00 1.09 1.09 97 1018.8
20260831043917 8 292 0.0 0.0 0.00 1.09 1.09 97 1018.7
20260831043634 8 292 0.0 0.0 0.00 1.09 1.09 97 1018.7
20260831042911 8 292 0.0 0.0 0.00 1.09 1.09 97 1018.7
20260831042406 8 292 0.0 0.0 0.00 1.09 1.09 97 1018.7
20260831041903 8 292 0.0 0.0 0.00 1.09 1.09 97 1018.7
20260831041631 8 292 0.0 1.6 0.00 1.09 1.09 97 1018.6
20260831040857 8 292 0.0 1.6 0.00 1.09 1.09 97 1018.6
20260831040628 8 292 0.0 0.0 0.00 1.09 1.09 97 1018.5
20260831035843 8 292 0.0 0.0 0.00 1.09 1.09 97 1018.6
20260831035829 8 292 0.0 0.0 0.00 1.09 1.09 97 1018.7
20260831034828 8 292 0.0 0.0 0.00 1.09 1.09 97 1018.6
20260831034328 8 292 0.0 0.0 0.00 1.09 1.09 97 1018.6
20260831033823 8 292 0.0 0.0 0.00 1.09 1.09 96 1018.5
20260831033323 8 292 0.0 0.0 0.00 1.09 1.09 96 1018.5
20260831033045 8 292 0.0 3.2 0.00 1.09 1.09 96 1018.5
20260831032323 8 292 0.0 3.2 0.00 1.09 1.09 96 1018.5
20260831032038 8 292 0.0 0.0 0.00 1.09 1.09 96 1018.6
20260831031309 9 292 0.0 0.0 0.00 1.09 1.09 96 1018.4
20260831030804 9 292 0.0 0.0 0.00 1.09 1.09 96 1018.4
20260831030254 9 292 0.0 0.0 0.00 1.09 1.09 96 1018.4
20260831030024 9 292 0.0 0.0 0.00 1.09 1.09 96 1018.3
20260831025511 9 292 0.0 0.0 0.00 1.09 1.09 96 1018.3
20260831024745 9 292 0.0 0.0 0.00 1.09 1.09 96 1018.2
20260831024244 9 292 0.0 0.0 0.00 1.09 1.09 96 1018.2
20260831023742 9 292 0.0 0.0 0.00 1.09 1.09 96 1018.2
20260831023235 9 292 0.0 0.0 0.00 1.09 1.09 96 1018.1
20260831022735 9 292 0.0 0.0 0.00 1.09 1.09 96 1017.9
20260831022238 9 292 0.0 0.0 0.00 1.09 1.09 96 1017.8
20260831021714 9 292 0.0 0.0 0.00 1.09 1.09 96 1017.8
20260831021429 9 292 0.0 0.0 0.00 1.09 1.09 96 1017.8
20260831020934 9 292 0.0 0.0 0.00 1.09 1.09 96 1017.7
20260831020149 9 292 0.0 0.0 0.00 1.09 1.09 96 1017.7
20260831015914 9 292 0.0 0.0 0.00 1.09 1.09 96 1017.7
20260831015145 9 292 0.0 0.0 0.00 1.09 1.09 96 1017.7
20260831014648 9 292 0.0 0.0 0.00 1.09 1.09 96 1017.7
20260831014358 9 292 0.0 1.6 0.00 1.09 1.09 96 1017.7
20260831013640 9 292 0.0 1.6 0.00 1.09 1.09 96 1017.8
20260831013136 10 291 0.0 1.6 0.00 1.09 1.09 96 1017.8
20260831012636 10 292 0.0 0.0 0.00 1.09 1.09 96 1017.7
20260831012139 10 292 0.0 0.0 0.00 1.09 1.09 96 1017.7
20260831011631 10 292 0.0 0.0 0.00 1.09 1.09 96 1017.6
20260831011121 10 292 0.0 0.0 0.00 1.09 1.09 96 1017.7
20260831010844 10 292 0.0 0.0 0.00 1.09 1.09 96 1017.6
20260831010121 10 292 0.0 0.0 0.00 1.09 1.09 96 1017.6
20260831010109 10 292 0.0 0.0 0.00 1.09 1.09 96 1017.6
20260831005117 10 292 0.0 0.0 0.00 1.09 1.09 96 1017.6
20260831004606 10 292 0.0 0.0 0.00 1.09 1.09 96 1017.6
20260831004315 10 292 0.0 0.0 0.00 1.09 1.09 96 1017.6
20260831003556 10 292 0.0 0.0 0.00 1.09 1.09 96 1017.6
20260831003055 10 292 0.0 0.0 0.00 1.09 1.09 96 1017.6
20260831002542 10 292 0.0 0.0 0.00 1.09 1.09 96 1017.6
20260831002042 10 292 0.0 0.0 0.00 1.09 1.09 96 1017.6
20260831001805 10 292 0.0 0.0 0.00 1.09 1.09 96 1017.6
20260831001032 10 292 0.0 0.0 0.00 1.09 1.09 96 1017.5
20260831000532 10 292 0.0 1.6 0.00 1.09 1.09 96 1017.5
20260831000028 10 292 0.0 1.6 0.00 1.09 1.09 96 1017.4
20260830235522 10 292 0.0 0.0 0.00 1.09 1.09 96 1017.4
20260830235017 10 292 0.0 0.0 0.00 1.09 1.09 96 1017.4
20260830234513 10 292 0.0 0.0 0.00 1.09 1.09 96 1017.5
20260830234234 10 292 0.0 0.0 0.00 1.09 1.09 96 1017.5
20260830233513 10 292 0.0 0.0 0.00 1.09 1.09 96 1017.4
20260830233008 10 292 0.0 0.0 0.00 1.09 1.09 96 1017.4
20260830232503 10 292 0.0 0.0 0.00 1.09 1.09 96 1017.4
20260830232003 10 292 0.0 0.0 0.00 1.09 1.09 96 1017.5
20260830231506 10 292 0.0 1.6 0.00 1.09 1.09 96 1017.5
20260830231003 10 292 0.0 1.6 0.00 1.09 1.09 96 1017.5
20260830230459 10 292 0.0 0.0 0.00 1.09 1.09 96 1017.5
20260830225955 10 292 0.0 0.0 0.00 1.09 1.09 96 1017.4
20260830225454 10 292 0.0 0.0 0.00 1.09 1.09 96 1017.5
20260830225438 10 292 0.0 0.0 0.00 1.09 1.09 96 1017.5
20260830224450 10 292 0.0 0.0 0.00 1.09 1.09 96 1017.6
20260830223949 10 292 0.0 0.0 0.00 1.09 1.09 96 1017.5
20260830223450 10 292 0.0 0.0 0.00 1.09 1.09 96 1017.6
20260830222939 10 292 0.0 0.0 0.00 1.09 1.09 96 1017.7
20260830222430 10 292 0.0 0.0 0.00 1.09 1.09 96 1017.7
20260830221930 10 292 0.0 0.0 0.00 1.09 1.09 96 1017.7
20260830221428 10 292 0.0 0.0 0.00 1.09 1.09 96 1017.7
20260830220926 10 292 0.0 0.0 0.00 1.09 1.09 96 1017.6
20260830220635 9 292 0.0 0.0 0.00 1.09 1.09 96 1017.7
20260830215906 9 292 0.0 0.0 0.00 1.09 1.09 96 1017.7
20260830215400 10 292 0.0 0.0 0.00 1.09 1.09 96 1017.7
20260830214904 10 292 0.0 0.0 0.00 1.09 1.09 96 1017.7
20260830214402 9 292 0.0 0.0 0.00 1.09 1.09 96 1017.6
20260830213901 9 292 0.0 0.0 0.00 1.09 1.09 96 1017.8
20260830213616 9 292 0.0 0.0 0.00 1.09 1.09 96 1017.7
20260830212857 9 292 0.0 3.2 0.00 1.09 1.09 96 1017.7
20260830212352 9 292 0.0 4.8 0.00 1.09 1.09 96 1017.6
20260830211855 9 292 1.6 4.8 0.00 1.09 1.09 96 1017.7
20260830211344 9 355 0.0 0.0 0.00 1.09 1.09 96 1017.7
20260830210834 9 355 0.0 0.0 0.00 1.09 1.09 96 1017.8
20260830210316 9 355 0.0 0.0 0.00 1.09 1.09 95 1017.7
20260830205815 9 355 0.0 0.0 0.00 1.09 1.09 95 1017.6
20260830205257 9 355 0.0 0.0 0.00 1.09 1.09 95 1017.6
20260830204757 9 355 0.0 0.0 0.00 1.09 1.09 95 1017.7
20260830204247 9 355 0.0 0.0 0.00 1.09 1.09 95 1017.4
20260830203746 9 355 0.0 0.0 0.00 1.09 1.09 95 1017.4
20260830203250 9 355 0.0 0.0 0.03 1.09 1.09 95 1017.4
20260830202745 9 355 0.0 1.6 0.03 1.09 1.09 95 1017.4
20260830202238 9 355 0.0 1.6 0.03 1.09 1.09 95 1017.3
20260830201733 9 352 0.0 0.0 0.03 1.09 1.09 95 1017.2
20260830201446 9 352 0.0 0.0 0.05 1.09 1.09 94 1017.0
20260830200729 9 352 0.0 0.0 0.05 1.09 1.09 94 1017.0
20260830200227 9 352 0.0 0.0 0.08 1.09 1.09 94 1016.9
20260830195731 9 352 0.0 0.0 0.08 1.09 1.09 94 1017.0
20260830195457 9 352 0.0 0.0 0.10 1.09 1.09 94 1017.0
20260830194728 9 352 0.0 0.0 0.13 1.09 1.09 94 1017.0
20260830194224 9 352 0.0 3.2 0.15 1.09 1.09 94 1016.9
20260830193721 9 352 0.0 3.2 0.15 1.09 1.09 94 1017.0
20260830193447 9 336 0.0 0.0 0.15 1.07 1.07 95 1016.9
20260830192719 9 336 0.0 3.2 0.18 1.07 1.07 94 1016.9
20260830192219 9 336 0.0 3.2 0.20 1.07 1.07 94 1017.0
20260830191719 9 355 0.0 0.0 0.23 1.07 1.07 94 1016.8
20260830191215 9 355 0.0 0.0 0.23 1.04 1.04 94 1016.8
20260830190709 9 355 0.0 0.0 0.25 1.04 1.04 94 1016.8
20260830190210 9 355 0.0 0.0 0.25 1.02 1.02 94 1016.9
20260830185703 9 355 0.0 1.6 0.28 1.02 1.02 94 1016.9
20260830185159 8 355 0.0 4.8 0.28 0.99 0.99 93 1016.9
20260830184922 9 350 0.0 6.4 0.28 0.97 0.97 94 1016.7
20260830184150 9 346 0.0 19.3 0.28 0.94 0.94 94 1016.7
20260830183908 9 238 3.2 19.3 0.33 0.94 0.94 94 1016.6
20260830183146 9 134 0.0 3.2 0.33 0.91 0.91 94 1016.7
20260830182626 9 118 0.0 3.2 0.33 0.89 0.89 94 1016.6
20260830182124 9 119 0.0 3.2 0.33 0.86 0.86 94 1016.6
20260830181845 9 137 0.0 0.0 0.33 0.84 0.84 94 1016.7
20260830181346 9 137 0.0 0.0 0.33 0.81 0.81 94 1016.5
20260830180617 9 137 0.0 0.0 0.33 0.79 0.79 94 1016.5
20260830180118 9 137 0.0 0.0 0.33 0.76 0.76 94 1016.6
20260830180048 9 137 0.0 1.6 0.33 0.74 0.74 94 1016.5
20260830175118 9 137 0.0 3.2 0.33 0.71 0.71 94 1016.5
20260830174607 9 137 0.0 3.2 0.33 0.69 0.69 94 1016.5
20260830174109 9 137 0.0 1.6 0.36 0.66 0.66 94 1016.4
20260830173829 8 137 0.0 1.6 0.30 0.61 0.61 93 1016.3
20260830173100 8 137 0.0 1.6 0.30 0.58 0.58 93 1016.3
20260830172552 8 137 0.0 3.2 0.30 0.56 0.56 92 1016.2
20260830172056 8 137 0.0 12.9 0.30 0.53 0.53 92 1016.0
20260830171553 8 150 1.6 12.9 0.30 0.51 0.51 92 1016.2
20260830171053 8 275 0.0 4.8 0.28 0.48 0.48 92 1016.2
20260830170553 8 275 0.0 4.8 0.28 0.46 0.46 92 1016.2
20260830170049 9 288 0.0 3.2 0.28 0.43 0.43 92 1016.3
20260830165552 9 304 0.0 3.2 0.25 0.41 0.41 92 1016.3
20260830165046 9 304 0.0 1.6 0.25 0.38 0.38 91 1016.0
20260830164544 9 287 0.0 0.0 0.20 0.33 0.36 91 1016.2
20260830164027 9 287 0.0 6.4 0.18 0.30 0.33 90 1016.0
20260830163524 9 287 0.0 6.4 0.15 0.28 0.30 89 1016.0
20260830163030 9 100 1.6 6.4 0.15 0.28 0.28 88 1015.8
20260830162520 9 134 1.6 4.8 0.13 0.25 0.25 89 1015.8
20260830162240 9 173 0.0 4.8 0.10 0.23 0.23 89 1015.7
20260830161520 9 163 0.0 6.4 0.08 0.20 0.20 88 1015.8
20260830161020 9 22 0.0 6.4 0.10 0.20 0.20 87 1015.7
20260830160515 9 171 0.0 6.4 0.08 0.18 0.18 86 1015.7
20260830160015 9 111 0.0 8.0 0.05 0.15 0.15 87 1015.8
20260830155513 9 165 3.2 8.0 0.05 0.15 0.15 86 1015.8
20260830155011 9 188 0.0 11.3 0.03 0.13 0.13 86 1015.7
20260830154510 9 184 0.0 11.3 0.03 0.13 0.13 85 1015.8
20260830154011 9 15 3.2 11.3 0.03 0.13 0.13 86 1015.7
20260830153733 9 101 0.0 4.8 0.05 0.13 0.13 87 1015.9
20260830153006 9 59 0.0 4.8 0.05 0.13 0.13 86 1015.8
20260830152507 9 90 0.0 6.4 0.08 0.13 0.13 86 1015.8
20260830152007 9 91 3.2 11.3 0.08 0.13 0.13 85 1015.8
20260830151507 9 348 1.6 11.3 0.08 0.13 0.13 87 1015.9
20260830151007 9 101 0.0 4.8 0.05 0.10 0.10 87 1016.0
20260830150502 8 82 0.0 4.8 0.05 0.10 0.10 87 1016.0
20260830145953 8 5 0.0 6.4 0.05 0.10 0.10 88 1015.9
20260830145452 8 54 1.6 8.0 0.05 0.10 0.10 87 1016.0
20260830144952 8 215 1.6 8.0 0.05 0.10 0.10 87 1015.9
20260830144453 9 155 0.0 3.2 0.08 0.10 0.10 87 1015.8
20260830143956 9 120 0.0 0.0 0.08 0.10 0.10 88 1015.9
20260830143443 9 120 0.0 0.0 0.05 0.08 0.08 87 1015.9
20260830142943 9 120 0.0 0.0 0.08 0.08 0.08 86 1015.9
20260830142659 9 120 0.0 1.6 0.05 0.05 0.05 85 1015.9
20260830141934 9 120 0.0 1.6 0.05 0.05 0.05 85 1016.0
20260830141652 9 123 0.0 0.0 0.05 0.05 0.05 85 1015.9
20260830140934 9 123 0.0 4.8 0.05 0.05 0.05 84 1016.0
20260830140429 9 123 0.0 4.8 0.05 0.05 0.05 81 1015.8
20260830135931 10 115 0.0 4.8 0.05 0.05 0.05 81 1015.8
20260830135638 10 123 0.0 0.0 0.05 0.05 0.05 82 1015.9
20260830134919 10 123 0.0 11.3 0.05 0.05 0.05 81 1015.9
20260830134621 10 123 0.0 11.3 0.03 0.03 0.03 77 1015.8
20260830133900 10 60 0.0 3.2 0.03 0.03 0.03 79 1015.9
20260830133349 11 60 0.0 3.2 0.03 0.03 0.03 79 1015.8
20260830132846 11 61 0.0 1.6 0.00 0.00 0.00 74 1015.7
20260830132348 11 71 0.0 0.0 0.00 0.00 0.00 72 1015.7
20260830131846 11 71 0.0 0.0 0.00 0.00 0.00 67 1015.6
20260830131611 11 71 0.0 3.2 0.00 0.00 0.00 66 1015.5
20260830130849 11 71 0.0 3.2 0.00 0.00 0.00 67 1015.6
20260830130344 11 71 0.0 8.0 0.00 0.00 0.00 67 1015.5
20260830125842 11 49 1.6 11.3 0.00 0.00 0.00 64 1015.5
20260830125336 11 74 0.0 11.3 0.00 0.00 0.00 64 1015.4
20260830124831 11 143 0.0 4.8 0.00 0.00 0.00 66 1015.5
20260830124331 11 178 0.0 4.8 0.00 0.00 0.00 65 1015.3
20260830123826 11 74 0.0 3.2 0.00 0.00 0.00 62 1015.3
20260830123327 11 74 0.0 11.3 0.00 0.00 0.00 61 1015.4
20260830122826 11 72 0.0 11.3 0.00 0.00 0.00 63 1015.1
20260830122536 12 86 0.0 12.9 0.00 0.00 0.00 62 1015.1
20260830121812 12 12 0.0 20.9 0.00 0.00 0.00 59 1015.1
20260830121306 12 88 0.0 20.9 0.00 0.00 0.00 61 1015.1
20260830120807 12 122 1.6 17.7 0.00 0.00 0.00 60 1015.1
20260830120307 12 80 0.0 4.8 0.00 0.00 0.00 60 1015.1
20260830115809 12 72 0.0 11.3 0.00 0.00 0.00 60 1015.1